STARLINK-36909

Last updated on Fri Mar 27 2026 00:02:06 GMT+0000 (Coordinated Universal Time)

1 67946U 26037Q 26085.50002314 .00117155 00000+0 19792-2 0 9995 2 67946 42.9999 96.4677 0001283 277.0321 83.3445 15.50491631 5907
UTC large
Height (km)
Speed (km/s)
/
Latitude / Longitude
Inclination (degrees)
Orbital Period (minutes)
Azimuth
Elevation
Range (km)
Doppler Factor

Next 0 passes for location: London (51.5072 / 0.1276)

Sorry there are no passes over London.